Location: Arboyeti
(42.1122°N, 44.6017°E)
Time: 21:11:20
(UTC+00:00)

Cosmos 2082 Rocket - Pass Details

Date: 19 April 2021
Orbit: 835 x 852 km, 71.0° (Epoch: 18 May)

Event Time Altitude Azimuth Distance (km) Brightness Sun altitude
Rises 23:32:27 0° 334° (NNW) 3,394 5.6 -26.1°
Reaches altitude 10° 23:34:54 10° 334° (NNW) 2,454 4.8 -25.7°
Maximum altitude 23:40:31 83° 248° (WSW) 847 2.0 -25.0°
Enters shadow 23:42:04 50° 167° (SSE) 1,056 2.4 -24.8°
